THORAD DELTA 1 DEB, 8400

Orbit data source: Space-Track

THORAD DELTA 1 DEB, 8400 is space debris in SSO originally from a launch on Fri, 15 Nov 1974 UTC launched from the Air Force Western Test Range (AFWTR). Debris objects in space refer to the collection of defunct objects orbiting the Earth. Examples of debris include non-operational satellites, rocket bodies, and fragments generated from explosions, collisions, or faulty payload assembly.

Loading next visibility...
Identifier
8400, 1974-089CC
Orbit
SSO
Country
Flag of USUS
Related business
Manufacturer
Unknown
Mission
Spacecraft
Bus & Motor
Unknown
Mass
Unknown
Launch date (UTC)
1974-11-15 (51 years ago)
Launch vehicle
Unknown
Launch site
Air Force Western Test Range (AFWTR)
Object type
Payload
Rocket body
Debris
Shape & HBR
Unknown shape, 0.1 m
Radar Cross Section
Small (<0.1 m²)

Expand to show TLE details & history
Last TLE update: 3 days ago

TLE from 3 days ago
0 THORAD DELTA 1 DEB
1 08400U 74089CC  25336.87743403  .00000066  00000-0  76950-3 0  9997
2 08400 101.7679 300.2698 0048890 183.8950 237.2006 12.44912662320659
Epoch: 2025-12-02T21:03Z
TLE epoch observation values (Epoch: 2025-12-02T21:03:30.300Z)
Latitude
58.64489°
Longitude
-107.45343°
Altitude
1,516.527 km
Speed
7.103 km/s
True Right ascension
18h 41m 30s
True Declination
58° 30' 24"
Sunlit
Object was in daylight at epoch
Visualization orbit readout
Latitude
Unknown
Longitude
Unknown
Altitude
Unknown
Speed
Unknown
Apparent Right ascension
Unknown
Apparent Declination
Unknown
Sunlit
N/A
Visualization observer readout
Local Sidereal Time
12:23:16
Azimuth
Unknown
Elevation
Unknown
Doppler factor
Unknown
Orbital elements
Apogee altitude
1,521.836 km
Perigee altitude
1,444.966 km
Semi-major axis
7,861.538 km
Eccentricity
0.00489
Inclination
101.7679°
RAAN
300.2698°
Arg. of periapsis
183.895°
True anomaly
236.73124°
Mean anomaly
237.2006°
Eccentric anomaly
236.96576°
Mean motion
3.11374 °/min
Orbital period
115.62 mins
BSTAR
0.0007695

Documentation

Showing up to 5 results
|